When you browse on this site, cookies collect data to enhance your experience and personalize the content and advertising you see.
Visit our Privacy Policy to learn more. By continuing to use the site, you agree to this use of cookies and data.
  • In Lithuania
  • List of Countries
  • For 7 days
  • Water Temperature
  • Satellite Maps
  • Weather Map
  • Weather Widgets
  • user-avatar
    Login

    Hourly Weather Chrapczew

    Today, 26 June, Wednesday

    Time Temperature Precipitation Wind Pressure Humidity
    00:00 +25°C° 0 mm 3 mps 756 mmHg 81%
    01:00 +24°C° 0 mm 3 mps 756 mmHg 81%
    02:00 +24°C° 0 mm 3 mps 755 mmHg 82%
    03:00 +24°C° 0 mm 3 mps 755 mmHg 84%
    04:00 +24°C° 0 mm 3 mps 755 mmHg 86%
    05:00 +25°C° 0 mm 3 mps 755 mmHg 80%
    06:00 +27°C° 0 mm 3 mps 755 mmHg 74%
    07:00 +28°C° 0 mm 3 mps 755 mmHg 69%
    08:00 +30°C° 0 mm 4 mps 755 mmHg 63%
    09:00 +32°C° 0 mm 4 mps 754 mmHg 58%
    10:00 +33°C° 0 mm 5 mps 754 mmHg 52%
    11:00 +34°C° 0 mm 5 mps 754 mmHg 51%
    12:00 +34°C° 0 mm 5 mps 754 mmHg 50%
    13:00 +35°C° 0 mm 5 mps 753 mmHg 49%
    14:00 +35°C° 0 mm 5 mps 753 mmHg 48%
    15:00 +35°C° 0 mm 5 mps 752 mmHg 48%
    16:00 +35°C° 0 mm 4 mps 752 mmHg 48%
    17:00 +34°C° 0 mm 4 mps 752 mmHg 54%
    18:00 +33°C° 0 mm 4 mps 751 mmHg 59%
    19:00 +32°C° 0 mm 4 mps 751 mmHg 64%
    20:00 +30°C° 0.1 mm 3 mps 751 mmHg 65%
    21:00 +29°C° 0.1 mm 3 mps 751 mmHg 67%
    22:00 +28°C° 0.1 mm 3 mps 751 mmHg 68%
    23:00 +27°C° 0.6 mm 4 mps 751 mmHg 76%

    Tomorrow, 27 June, Thursday

    Time Temperature Precipitation Wind Pressure Humidity
    00:00 +25°C° 0.6 mm 4 mps 751 mmHg 84%
    01:00 +22°C° 0.6 mm 4 mps 751 mmHg 92%
    02:00 +21°C° 0 mm 4 mps 751 mmHg 92%
    03:00 +20°C° 0 mm 4 mps 751 mmHg 93%
    04:00 +19°C° 0 mm 4 mps 751 mmHg 93%
    05:00 +19°C° 0 mm 5 mps 752 mmHg 89%
    06:00 +19°C° 0 mm 6 mps 752 mmHg 85%
    07:00 +17°C° 0 mm 7 mps 752 mmHg 81%
    08:00 +18°C° 0 mm 7 mps 752 mmHg 73%
    09:00 +20°C° 0 mm 7 mps 752 mmHg 65%
    10:00 +21°C° 0 mm 7 mps 752 mmHg 57%
    11:00 +21°C° 0 mm 7 mps 752 mmHg 56%
    12:00 +22°C° 0 mm 7 mps 752 mmHg 55%
    13:00 +22°C° 0 mm 8 mps 752 mmHg 53%
    14:00 +22°C° 0 mm 7 mps 752 mmHg 55%
    15:00 +23°C° 0 mm 7 mps 752 mmHg 56%
    16:00 +23°C° 0 mm 7 mps 752 mmHg 57%
    17:00 +22°C° 0 mm 6 mps 752 mmHg 62%
    18:00 +21°C° 0 mm 6 mps 752 mmHg 66%
    19:00 +20°C° 0 mm 5 mps 752 mmHg 71%
    20:00 +19°C° 0 mm 5 mps 752 mmHg 75%
    21:00 +17°C° 0 mm 5 mps 753 mmHg 78%
    22:00 +17°C° 0 mm 4 mps 753 mmHg 82%
    23:00 +15°C° 0 mm 4 mps 753 mmHg 87%

    Day after tomorrow, 28 June, Friday

    Time Temperature Precipitation Wind Pressure Humidity
    00:00 +14°C° 0 mm 3 mps 754 mmHg 91%
    01:00 +14°C° 0 mm 2 mps 754 mmHg 96%
    02:00 +14°C° 0 mm 2 mps 754 mmHg 96%
    03:00 +14°C° 0 mm 2 mps 754 mmHg 96%
    04:00 +13°C° 0 mm 1 mps 754 mmHg 96%
    05:00 +15°C° 0 mm 2 mps 754 mmHg 90%
    06:00 +16°C° 0 mm 2 mps 754 mmHg 83%
    07:00 +18°C° 0 mm 3 mps 754 mmHg 77%
    08:00 +19°C° 0 mm 3 mps 754 mmHg 68%
    09:00 +21°C° 0 mm 3 mps 754 mmHg 60%
    10:00 +22°C° 0 mm 3 mps 753 mmHg 52%
    11:00 +23°C° 0.1 mm 4 mps 753 mmHg 52%
    12:00 +23°C° 0.1 mm 4 mps 753 mmHg 52%
    13:00 +23°C° 0.1 mm 5 mps 753 mmHg 52%
    14:00 +23°C° 0 mm 5 mps 753 mmHg 51%
    15:00 +23°C° 0 mm 5 mps 753 mmHg 50%
    16:00 +23°C° 0 mm 5 mps 753 mmHg 48%
    17:00 +22°C° 0 mm 5 mps 753 mmHg 53%
    18:00 +21°C° 0 mm 4 mps 754 mmHg 57%
    19:00 +20°C° 0 mm 4 mps 754 mmHg 62%
    20:00 +18°C° 0 mm 3 mps 754 mmHg 64%
    21:00 +16°C° 0 mm 3 mps 754 mmHg 65%
    22:00 +14°C° 0 mm 2 mps 755 mmHg 67%
    23:00 +14°C° 0 mm 2 mps 755 mmHg 69%

    29 June, Saturday

    Time Temperature Precipitation Wind Pressure Humidity
    00:00 +13°C° 0 mm 2 mps 755 mmHg 70%
    01:00 +12°C° 0 mm 1 mps 755 mmHg 72%
    02:00 +12°C° 0 mm 1 mps 755 mmHg 72%
    03:00 +12°C° 0 mm 1 mps 755 mmHg 73%
    04:00 +12°C° 0 mm 1 mps 755 mmHg 73%
    05:00 +14°C° 0 mm 2 mps 755 mmHg 70%
    06:00 +16°C° 0 mm 2 mps 755 mmHg 66%
    07:00 +18°C° 0 mm 2 mps 755 mmHg 62%
    08:00 +19°C° 0 mm 3 mps 755 mmHg 57%
    09:00 +21°C° 0 mm 3 mps 755 mmHg 52%
    10:00 +23°C° 0 mm 4 mps 755 mmHg 47%
    11:00 +23°C° 0 mm 4 mps 755 mmHg 45%
    12:00 +25°C° 0 mm 4 mps 754 mmHg 43%
    13:00 +26°C° 0 mm 4 mps 754 mmHg 42%
    14:00 +26°C° 0 mm 4 mps 754 mmHg 42%
    15:00 +26°C° 0 mm 4 mps 753 mmHg 43%
    16:00 +26°C° 0 mm 4 mps 753 mmHg 43%
    17:00 +25°C° 0 mm 3 mps 753 mmHg 48%
    18:00 +24°C° 0 mm 2 mps 753 mmHg 53%
    19:00 +23°C° 0 mm 2 mps 753 mmHg 58%
    20:00 +21°C° 0 mm 2 mps 753 mmHg 58%
    21:00 +20°C° 0 mm 2 mps 753 mmHg 58%
    22:00 +18°C° 0 mm 2 mps 753 mmHg 58%
    23:00 +18°C° 0 mm 2 mps 753 mmHg 60%

    30 June, Sunday

    Time Temperature Precipitation Wind Pressure Humidity
    00:00 +17°C° 0 mm 2 mps 753 mmHg 61%
    01:00 +17°C° 0 mm 3 mps 753 mmHg 62%
    02:00 +17°C° 0 mm 3 mps 753 mmHg 64%
    03:00 +16°C° 0 mm 3 mps 752 mmHg 66%
    04:00 +16°C° 0 mm 3 mps 752 mmHg 68%
    05:00 +18°C° 0 mm 3 mps 752 mmHg 65%
    06:00 +20°C° 0 mm 3 mps 752 mmHg 63%
    07:00 +22°C° 0 mm 3 mps 752 mmHg 60%
    08:00 +25°C° 0 mm 3 mps 752 mmHg 55%
    09:00 +27°C° 0 mm 4 mps 752 mmHg 49%
    10:00 +28°C° 0 mm 4 mps 752 mmHg 44%
    11:00 +29°C° 0 mm 4 mps 752 mmHg 42%
    12:00 +30°C° 0 mm 4 mps 751 mmHg 41%
    13:00 +32°C° 0 mm 5 mps 751 mmHg 39%
    14:00 +32°C° 0 mm 5 mps 750 mmHg 40%
    15:00 +32°C° 0 mm 5 mps 750 mmHg 40%
    16:00 +32°C° 0 mm 5 mps 750 mmHg 41%
    17:00 +30°C° 0 mm 5 mps 749 mmHg 47%
    18:00 +28°C° 0 mm 5 mps 749 mmHg 54%
    19:00 +27°C° 0 mm 4 mps 749 mmHg 61%
    20:00 +26°C° 0 mm 5 mps 749 mmHg 63%
    21:00 +25°C° 0 mm 5 mps 749 mmHg 66%
    22:00 +23°C° 0 mm 5 mps 749 mmHg 68%
    23:00 +23°C° 0 mm 5 mps 749 mmHg 70%

    1 July, Monday

    Time Temperature Precipitation Wind Pressure Humidity
    00:00 +22°C° 0 mm 5 mps 749 mmHg 72%
    01:00 +22°C° 0 mm 5 mps 749 mmHg 74%
    02:00 +21°C° 0 mm 4 mps 749 mmHg 79%
    03:00 +20°C° 0 mm 3 mps 749 mmHg 83%
    04:00 +19°C° 0 mm 2 mps 749 mmHg 87%
    05:00 +20°C° 0 mm 2 mps 749 mmHg 81%
    06:00 +21°C° 0 mm 2 mps 749 mmHg 75%
    07:00 +23°C° 0 mm 2 mps 749 mmHg 70%
    08:00 +24°C° 0 mm 3 mps 749 mmHg 65%
    09:00 +25°C° 0 mm 3 mps 749 mmHg 60%
    10:00 +26°C° 0 mm 4 mps 749 mmHg 54%
    11:00 +27°C° 0 mm 4 mps 749 mmHg 54%
    12:00 +28°C° 0 mm 4 mps 749 mmHg 53%
    13:00 +29°C° 0 mm 4 mps 748 mmHg 52%
    14:00 +29°C° 0 mm 4 mps 748 mmHg 53%
    15:00 +29°C° 0 mm 4 mps 747 mmHg 54%
    16:00 +29°C° 0 mm 3 mps 747 mmHg 54%
    17:00 +28°C° 0.1 mm 3 mps 747 mmHg 60%
    18:00 +27°C° 0.1 mm 2 mps 746 mmHg 65%
    19:00 +26°C° 0.1 mm 1 mps 746 mmHg 71%
    20:00 +24°C° 0.8 mm 1 mps 746 mmHg 75%
    21:00 +21°C° 0.8 mm 2 mps 746 mmHg 80%
    22:00 +20°C° 0.8 mm 2 mps 747 mmHg 84%
    23:00 +19°C° 0 mm 2 mps 747 mmHg 83%
    Show more